Find Starlink 3548

NORAD ID: 51864 Int'l Des: 2022-022 Owner: SPXS Country: US Constellation: starlink operational
LEOCIRCULAR

現在のビュー

3D地球を読み込み中...

About Starlink 3548

Starlink 3548 (NORAD 51864) is a starlink constellation satellite (v1.5) launched Mar 3, 2022 by SPXS of US. It operates in LEO, CIRCULAR orbit with a mass of 297.00 kg.

Starlink 3548について

説明を読み込み中...

次回通過

Passes for default location (London). Set your location on the main map for personalized predictions.

高度履歴

Loading altitude history...

軌道要素

1 51864U 22022N 26173.50187057 -.00000690 00000-0 -25248-4 0 9996
2 51864 53.1586 258.3932 0001136 86.0161 274.0960 15.08834615238988
Epoch: Jun 22, 2026 • Age: 23 hours

現在のステータス

高度 540.8 km
速度 7.59 km/s
衛星直下点 -0.71°S, 3.52°W
打ち上げ日 Mar 3, 2022
運用期間 4.3 years
タイプ internet

技術仕様

分類 Payload
質量 297.00 kg
乾燥質量 275.00 kg
総質量 297.00 kg
長さ 0.20 m
直径 2.80 m
スパン 9.00 m
形状 Box + pan
製造者 SPXS
バスタイプ Starlink
フェーズステータス In Orbit
所有者/国 SPXS/US

Most Searched